Location: Avully
(45.9633°N, 6.0228°E)
Time: 03:40:50
(UTC+00:00)

SL-16 R/B - Pass Details

Date: 23 May 2024
Orbit: 985 x 1007 km, 99.7° (Epoch: 17 June)

Event Time Altitude Azimuth Distance (km) Brightness Sun altitude
Rises 01:47:05 0° 153° (SSE) 3,720 5.3 -16.8°
Reaches altitude 10° 01:49:33 10° 151° (SSE) 2,775 4.6 -16.5°
Maximum altitude 01:55:44 67° 70° (ENE) 1,085 2.9 -15.9°
Drops below altitude 10° 02:01:58 10° 349° (N) 2,793 5.5 -15.3°
Sets 02:04:28 0° 347° (NNW) 3,745 6.2 -15.0°
